Weather in Mokraya Savaleyevka

Russia / Republic of Tatarstan     54°56′13″N   48°00′18″E
temp.,
°C
wind,
m/s
gust,
m/s
humid.,
%
clouds,
%
prec.,
mm/h
press.,
hPa
HPBL,
m
20 january, thu
thu2000:00−19wsw2210035 0.0 10189
03:00−20sw2210042 0.0 101811
06:00−19ssw2210087 0.0 101814
09:00−12ssw31096100 0.0 1017178
12:00−7ssw41193100 0.0 1017423
15:00−6ssw499187 0.0 1016295
18:00−7s51292100 0.0 1016324
21:00−9ssw5119192 0.0 1016279
21 january, fri
fri2100:00−12ssw4119130 0.0 1017199
03:00−15s379316 0.0 101898
06:00−17sse38968 0.0 101897
09:00−16s4119481 0.0 1019158
12:00−12sse5129139 0.0 1018251
15:00−12sse5129482 0.0 1018255
18:00−12sse6149691 0.0 1017286
21:00−12se61495100 0.0 1017328
22 january, sat
sat2200:00−12se71695100 0.0 1016356
03:00−10se81794100 0.3 1016543
06:00−8sse71394100 0.8 1016506
09:00−9sse5109589 0.8 1018263
12:00−9sse499547 0.0 1020261
15:00−7se4896100 0.0 1021235
18:00−7se4897100 0.0 1023200
21:00−7se3896100 0.1 1024193
23 january, sun
sun2300:00−6se4996100 0.1 1024267
03:00−5se61296100 0.8 1025442
06:00−5se71595100 1.3 1025604
09:00−6se71492100 1.4 1027488
12:00−7se51093100 0.0 1029387
15:00−7se51090100 0.0 1031328
18:00−8se41089100 0.0 1033272
21:00−9se3991100 0.0 1034200
24 january, mon
mon2400:00−10ese3889100 0.0 1035194
03:00−12ese3692100 0.0 103695
06:00−13ese2692100 0.0 103681
09:00−14ese3891100 0.0 1036120
12:00−11ese399090 0.0 1036209
15:00−11se3991100 0.0 1035182
18:00−13se3893100 0.0 1035108
21:00−13se3991100 0.0 1035129